Wetbulb
16.70 22.23 23.87 23.39 22.25 24.19 15.40 20.28 14.45 22.13 22.40 26.73 29.73 33.32 35.36 37.02 37.95 39.86 38.47 38.71 39.51 39.33 40.24 41.44 41.35 42.82 43.26 43.14 45.21 44.49 44.22 43.43 44.75 47.21 49.10 50.88 52.21 53.62 56.60 58.85 64.15 66.29 67.03 67.60
17.57 24.41 24.10 22.65 25.13 25.36 25.50 26.58 26.90 26.43 25.85 34.36 36.11 36.38 36.35 36.64 37.64 37.54 38.23 38.43 39.19 39.52 40.56 42.07 42.43 42.95 40.78 41.42 43.95 43.73 43.19 42.49 43.26 45.09 46.28 47.25 49.62 51.77 52.25 54.37 55.71 58.43 65.68 66.69
11.39 22.75 22.80 13.57 23.93 27.49 28.59 31.05 29.85 25.06 30.83 34.96 34.01 35.47 35.44 36.01 37.39 38.06 38.19 39.30 38.67 38.90 39.01 39.87 42.41 43.74 39.00 40.75 41.97 42.00 41.29 41.74 42.34 42.78 44.27 45.60 47.14 49.29 50.27 51.17 53.04 54.62 57.64 62.25
10.53 20.47 0.55 22.73 30.65 32.27 29.81 31.09 31.54 32.30 33.36 35.12 36.05 36.44 37.00 37.95 37.20 37.79 39.62 40.11 40.28 38.45 38.93 41.80 43.51 40.62 40.93 40.72 40.93 40.39 39.78 40.39 41.19 41.42 42.36 44.94 44.85 45.91 47.13 48.69 50.29 51.89 54.12 56.51
7.74 13.06 20.46 25.02 29.87 28.53 25.98 26.22 31.89 30.24 32.50 34.04 35.51 35.21 34.05 38.66 39.02 39.10 40.10 40.83 40.18 38.42 39.07 39.50 40.61 40.60 39.98 38.55 39.51 38.84 38.40 39.15 39.93 40.52 40.66 42.73 42.09 43.82 45.10 45.95 46.89 49.24 50.78 52.20
12.27 10.25 5.98 20.59 30.48 34.02 32.32 21.45 32.30 32.84 32.34 32.04 32.74 26.08 28.47 35.61 38.44 38.92 40.14 40.85 38.09 38.19 38.73 38.21 38.78 38.73 38.95 37.60 37.96 37.12 37.65 39.01 39.97 40.18 40.09 39.51 40.82 41.80 44.48 44.71 44.88 45.91 47.01 47.94
16.49 12.96 21.39 29.91 32.93 33.98 20.94 17.99 30.64 33.20 34.03 33.40 29.48 30.88 34.99 38.14 38.87 38.89 38.96 37.42 38.13 37.86 37.32 37.25 38.17 38.07 37.07 37.09 36.28 37.43 38.33 38.50 39.21 39.71 39.22 39.30 39.97 41.42 42.70 42.52 43.23 42.80 43.52 44.63
13.46 5.77 14.21 32.91 31.92 26.88 29.09 31.34 34.07 33.87 34.56 33.77 33.93 35.20 36.13 38.12 38.66 38.68 37.13 36.67 37.17 36.10 36.44 37.57 37.47 37.10 36.19 35.94 37.23 38.04 37.85 37.41 37.74 39.10 38.81 38.88 38.65 38.86 39.43 40.03 40.57 40.09 40.69 40.67
20.73 20.20 29.21 33.34 32.47 34.63 35.58 34.05 34.81 34.80 35.95 35.65 33.90 34.11 35.77 35.88 36.45 36.73 36.28 35.46 36.59 35.43 35.99 36.57 36.94 37.18 35.78 36.48 36.91 37.31 36.48 36.39 36.85 38.29 38.31 38.25 37.27 37.04 36.98 37.44 38.15 37.48 37.75 37.71
23.78 27.55 29.56 31.62 33.48 35.97 36.07 35.12 36.43 36.81 36.55 35.86 33.61 35.12 35.04 35.50 35.42 35.01 35.50 35.59 36.11 35.49 35.31 34.89 36.05 36.90 36.39 36.50 36.51 36.72 35.17 35.24 36.02 36.65 36.69 37.51 36.74 36.54 36.44 36.08 35.99 35.53 35.69 36.45
24.05 27.76 29.76 31.68 33.00 34.09 36.51 37.64 37.61 37.80 37.13 35.91 35.30 35.22 35.14 34.89 34.74 34.61 34.94 35.20 35.38 34.70 34.44 34.71 35.28 35.73 36.11 35.56 35.99 35.37 35.11 34.62 35.08 35.58 36.40 35.37 35.35 34.78 35.79 35.98 36.13 34.94 35.34 36.00
21.24 28.61 27.63 28.84 32.80 35.53 34.69 35.21 37.01 36.47 35.58 36.51 35.69 34.26 34.28 33.72 34.21 34.09 33.94 34.51 34.01 34.30 34.20 34.05 34.35 33.93 34.26 34.38 34.99 35.20 34.12 33.67 34.23 34.90 34.55 33.90 33.34 33.74 35.03 34.36 35.05 35.18 35.00 33.89
28.39 32.31 31.90 33.16 34.24 35.13 35.17 36.74 37.15 36.77 35.71 34.16 34.04 33.80 33.67 32.71 33.05 33.44 33.24 33.00 33.05 32.35 32.75 32.82 32.13 31.75 32.62 33.07 33.97 34.64 33.72 33.15 34.40 34.52 33.20 32.10 32.19 31.84 31.24 33.89 34.82 34.74 34.98 34.94
33.14 32.75 30.12 32.57 31.32 34.80 37.49 38.04 39.08 35.79 34.97 34.22 33.58 33.58 32.74 31.70 32.01 31.65 31.13 31.88 32.49 31.41 31.03 30.82 30.36 30.10 31.67 32.14 32.49 34.42 33.80 32.74 33.98 33.30 32.43 32.02 32.07 31.75 32.46 31.76 30.75 31.78 33.80 33.56
32.50 33.32 32.52 33.70 34.18 35.45 36.98 36.38 33.97 33.46 32.81 32.06 32.63 31.71 30.91 30.18 30.11 30.32 30.95 31.79 30.90 29.25 27.90 28.58 28.44 28.95 30.54 31.19 32.63 34.65 33.12 32.99 33.35 32.75 32.39 31.99 32.44 32.50 32.36 32.09 31.87 31.60 32.44 31.60
33.33 34.14 33.76 33.27 33.57 35.91 35.91 34.42 33.96 31.76 30.86 30.47 29.96 30.31 30.23 30.40 30.26 30.23 31.00 30.91 29.11 28.65 29.32 26.42 26.57 29.36 29.64 32.58 33.80 33.82 32.63 32.12 32.53 32.11 31.54 31.40 31.67 31.58 31.78 31.73 31.46 31.44 31.39 31.76
30.33 29.86 30.59 34.17 34.36 34.75 35.46 34.52 33.30 30.61 30.35 29.95 30.19 30.26 29.71 29.33 29.29 29.35 29.60 29.74 28.87 28.51 28.69 28.51 28.41 29.39 31.08 33.73 33.31 32.09 32.12 32.36 31.75 31.87 31.12 30.89 31.28 31.16 31.27 31.14 31.10 30.97 31.14 32.34
33.95 34.33 33.14 33.74 34.46 33.13 33.21 33.38 31.32 30.91 30.31 30.72 30.50 28.49 25.49 22.43 26.54 25.68 25.31 26.75 25.37 26.74 28.67 29.49 29.68 30.89 33.06 33.88 33.08 31.98 31.50 31.69 31.73 30.49 29.88 30.42 30.70 31.24 31.39 31.21 31.26 30.99 31.23 31.91
34.97 34.63 35.36 35.19 34.68 34.04 31.90 31.11 31.32 31.14 28.78 28.36 25.30 24.06 25.37 23.32 27.58 28.78 28.90 25.64 24.80 27.12 28.69 30.57 30.55 30.40 32.46 33.04 30.57 31.15 31.21 30.70 30.12 29.83 30.31 30.65 30.83 31.15 31.09 31.39 31.02 31.14 31.33 31.15
36.22 35.89 35.39 35.20 34.02 32.25 30.90 31.35 30.62 30.09 30.18 29.52 23.95 24.04 22.80 21.92 27.43 28.80 28.93 27.18 28.17 29.11 29.70 30.16 30.93 32.78 31.52 30.38 30.62 31.01 30.39 29.87 29.69 29.90 30.25 30.41 30.49 30.40 30.90 31.00 31.05 30.93 31.32 31.33
34.56 34.26 33.15 32.21 30.87 30.65 28.18 27.63 27.45 28.07 27.88 24.69 21.69 20.06 20.55 22.87 28.48 28.67 27.18 26.14 27.87 28.69 28.85 32.28 29.30 29.43 30.00 31.01 31.51 30.63 30.22 29.80 29.66 29.78 30.10 30.04 30.00 30.36 30.48 30.69 30.77 31.12 31.30 31.46
31.74 28.53 26.88 27.08 27.88 25.58 25.03 26.54 27.28 21.73 20.92 18.49 16.47 15.17 16.83 21.34 25.61 27.84 27.89 26.81 27.56 24.78 30.01 28.02 28.06 27.83 29.04 30.98 30.87 30.36 30.17 29.97 30.02 30.32 30.20 30.14 30.22 30.00 30.11 30.68 30.53 31.11 31.39 31.31
32.05 30.73 29.67 25.97 22.49 23.33 28.21 30.04 27.79 23.98 20.16 19.58 19.27 21.22 20.86 24.14 25.01 26.42 23.55 25.02 25.56 24.94 26.85 28.43 28.48 28.74 29.97 30.46 30.33 29.98 29.61 29.72 29.77 29.90 30.05 30.15 30.33 30.39 30.55 30.61 30.84 31.20 31.05 31.00
30.27 30.02 29.32 28.00 30.78 30.00 28.77 27.63 22.03 24.05 23.11 28.69 26.90 20.50 19.60 20.48 20.55 23.47 24.60 21.95 21.47 26.98 27.17 27.92 28.38 28.77 29.30 29.98 29.91 29.69 29.70 29.85 30.10 30.11 30.20 30.31 30.66 30.81 30.78 30.73 30.51 30.62 30.63 30.20
29.47 29.83 27.79 27.54 30.52 30.11 30.06 27.71 24.58 28.68 29.48 28.90 21.63 21.38 22.68 22.29 19.86 23.57 20.89 24.23 24.79 26.18 27.05 27.82 28.33 28.61 29.09 29.33 29.56 29.47 29.67 30.06 30.53 30.43 30.21 29.92 29.90 29.89 29.83 29.94 29.77 29.27 29.08 29.10
30.19 30.51 31.14 30.70 31.38 29.82 27.35 26.88 25.84 27.40 27.67 19.82 17.36 14.89 16.92 18.31 19.88 20.07 20.36 19.38 23.85 23.16 25.27 26.62 27.11 27.54 28.14 28.68 28.82 29.00 29.80 30.20 30.31 29.75 29.78 29.78 29.75 29.56 29.02 28.50 27.88 27.99 28.03 28.34
28.73 26.60 29.27 28.60 28.13 29.59 28.11 27.86 23.74 19.76 20.32 15.15 13.34 16.40 16.27 16.04 15.81 16.08 15.10 16.60 18.65 21.28 22.12 23.39 26.03 26.79 27.14 27.33 27.80 28.82 29.61 30.27 29.66 29.34 29.43 29.41 29.42 28.46 27.41 27.16 27.24 26.90 26.66 26.72
MSLP
1032.57 1032.04 1031.75 1031.33 1030.73 1030.03 1030.59 1029.27 1029.19 1025.91 1025.20 1023.89 1023.25 1022.89 1022.69 1022.52 1021.98 1021.39 1020.95 1020.40 1019.91 1019.27 1018.41 1017.60 1017.42 1017.39 1017.28 1016.27 1015.66 1015.10 1014.61 1013.76 1012.98 1011.70 1010.49 1008.45 1007.76 1006.84 1005.99 1005.93 1004.14 1004.30 1004.00 1004.12
1031.78 1031.06 1030.69 1029.98 1028.77 1027.94 1027.27 1026.90 1026.36 1025.19 1024.60 1024.22 1023.48 1022.72 1022.44 1021.85 1021.53 1021.19 1020.71 1019.98 1019.31 1018.43 1017.61 1017.28 1017.54 1017.60 1017.32 1016.58 1015.96 1015.40 1014.87 1014.49 1013.75 1012.18 1010.86 1010.11 1008.26 1007.26 1007.12 1005.67 1005.47 1004.56 1002.73 1002.94
1031.92 1030.85 1029.86 1028.69 1027.05 1026.09 1025.69 1025.66 1025.72 1025.07 1024.63 1024.23 1023.37 1022.64 1022.31 1021.89 1021.69 1021.17 1020.55 1019.99 1019.33 1018.61 1018.13 1017.84 1017.87 1017.79 1017.37 1017.08 1016.59 1016.01 1015.43 1014.43 1013.19 1012.01 1011.39 1010.73 1009.43 1008.18 1008.15 1007.55 1006.49 1005.77 1004.21 1003.39
1032.30 1030.95 1029.51 1026.53 1025.30 1024.77 1024.76 1024.81 1024.71 1024.29 1023.85 1023.49 1023.01 1022.39 1022.20 1021.87 1021.56 1021.05 1020.44 1019.69 1019.22 1018.77 1018.36 1017.93 1017.74 1017.47 1017.34 1017.04 1016.77 1016.33 1015.63 1014.85 1013.78 1012.59 1011.85 1010.64 1009.94 1009.19 1009.53 1008.01 1005.98 1005.92 1004.70 1004.23
1032.06 1031.06 1028.42 1025.84 1024.56 1024.32 1024.19 1024.04 1023.60 1023.33 1023.14 1022.79 1022.42 1022.51 1022.10 1021.28 1021.00 1020.62 1020.09 1019.35 1019.01 1018.76 1018.22 1017.77 1017.59 1017.42 1017.22 1017.00 1016.82 1016.16 1015.56 1014.71 1013.66 1012.93 1012.23 1011.07 1010.13 1008.86 1007.59 1007.04 1006.08 1005.28 1005.19 1004.64
1031.56 1030.82 1028.41 1025.30 1023.90 1023.14 1023.15 1023.45 1022.78 1022.89 1022.66 1022.61 1022.40 1022.53 1021.67 1020.75 1020.54 1020.13 1019.57 1019.08 1018.84 1018.65 1018.18 1017.81 1017.56 1017.27 1017.11 1016.77 1016.40 1015.90 1015.44 1014.97 1014.32 1013.32 1012.53 1011.64 1010.84 1010.13 1008.80 1008.26 1006.92 1006.48 1004.95 1004.73
1030.22 1029.38 1026.58 1023.97 1023.07 1022.39 1022.91 1023.25 1022.40 1022.34 1022.33 1022.28 1022.32 1022.03 1021.16 1020.52 1020.12 1019.69 1019.47 1019.09 1018.75 1018.44 1018.21 1018.00 1017.77 1017.38 1017.02 1016.75 1016.32 1016.08 1015.71 1015.30 1014.55 1013.54 1012.49 1011.86 1011.22 1010.58 1009.65 1009.04 1007.71 1007.40 1006.51 1005.93
1028.81 1027.77 1025.50 1022.72 1022.41 1022.53 1022.24 1021.82 1021.82 1021.75 1021.70 1021.81 1021.65 1021.30 1020.95 1020.58 1020.12 1019.60 1019.43 1019.17 1018.81 1018.61 1018.33 1017.98 1017.88 1017.61 1017.39 1016.81 1016.42 1016.17 1015.74 1015.21 1014.50 1013.79 1012.91 1011.89 1011.02 1010.67 1009.90 1009.28 1008.09 1008.34 1007.48 1006.40
1026.27 1024.76 1023.27 1022.41 1021.95 1021.51 1021.44 1021.36 1021.24 1021.06 1020.83 1020.73 1020.81 1020.84 1020.68 1020.47 1020.17 1019.76 1019.53 1019.27 1018.89 1018.71 1018.47 1018.16 1017.94 1017.63 1017.28 1017.13 1016.76 1016.24 1015.84 1015.25 1014.55 1013.89 1013.32 1012.75 1011.61 1010.67 1010.11 1009.48 1008.50 1009.17 1008.18 1007.40
1025.14 1023.49 1022.65 1021.96 1021.36 1021.02 1020.83 1020.64 1020.23 1020.40 1020.33 1020.20 1020.28 1020.40 1020.43 1020.28 1020.05 1019.89 1019.64 1019.32 1019.03 1018.85 1018.62 1018.47 1018.07 1017.73 1017.49 1017.18 1016.79 1016.36 1015.88 1015.30 1014.89 1014.20 1013.44 1013.07 1012.39 1011.68 1011.13 1010.04 1009.73 1009.60 1008.72 1008.19
1024.22 1022.94 1022.26 1021.37 1020.99 1020.68 1020.52 1020.31 1019.97 1019.65 1019.87 1019.84 1020.01 1020.16 1020.09 1020.25 1020.21 1020.11 1019.91 1019.70 1019.40 1019.21 1019.00 1018.81 1018.52 1018.30 1017.91 1017.45 1016.83 1016.15 1015.49 1014.89 1014.59 1014.36 1013.72 1013.35 1012.78 1011.97 1011.45 1010.69 1010.41 1009.62 1009.59 1008.80
1022.90 1021.92 1021.83 1021.08 1020.62 1020.18 1019.92 1019.68 1019.27 1019.34 1019.63 1019.70 1019.87 1020.11 1020.07 1020.31 1020.46 1020.39 1020.23 1020.03 1019.75 1019.52 1019.39 1019.25 1019.02 1018.65 1018.14 1017.56 1017.05 1016.40 1015.64 1015.22 1014.91 1014.29 1013.86 1013.36 1012.58 1011.93 1011.64 1010.94 1010.33 1009.97 1009.45 1009.16
1021.60 1021.16 1020.98 1020.41 1019.90 1019.41 1019.24 1019.08 1018.84 1019.25 1019.50 1019.86 1020.10 1020.26 1020.29 1020.51 1020.64 1020.58 1020.44 1020.26 1020.04 1019.89 1019.66 1019.44 1019.14 1018.73 1018.29 1017.80 1017.25 1016.57 1016.04 1015.60 1015.03 1014.47 1014.06 1013.54 1012.83 1012.17 1011.25 1010.72 1010.39 1009.82 1009.04 1008.76
1020.76 1020.59 1020.19 1019.45 1019.06 1018.53 1018.44 1018.55 1018.75 1019.11 1019.61 1019.82 1020.10 1020.35 1020.46 1020.58 1020.64 1020.73 1020.69 1020.54 1020.31 1020.11 1019.88 1019.63 1019.26 1018.77 1018.32 1017.87 1017.32 1016.49 1015.96 1015.76 1015.17 1014.56 1014.21 1013.73 1013.20 1012.55 1011.91 1010.96 1009.95 1009.46 1009.16 1008.93
1019.62 1019.21 1019.22 1018.39 1018.27 1018.05 1017.99 1018.30 1018.97 1019.55 1020.00 1020.20 1020.31 1020.38 1020.44 1020.55 1020.64 1020.71 1020.69 1020.56 1020.41 1020.17 1019.80 1019.45 1019.04 1018.46 1017.99 1017.61 1017.01 1016.27 1015.72 1015.26 1014.87 1014.44 1014.01 1013.49 1012.90 1012.12 1011.50 1010.91 1010.35 1009.75 1008.78 1008.27
1018.30 1018.17 1018.03 1017.77 1017.18 1017.49 1017.88 1018.31 1018.79 1019.35 1019.93 1020.11 1020.30 1020.31 1020.33 1020.46 1020.60 1020.55 1020.45 1020.36 1020.36 1020.04 1019.68 1019.33 1018.81 1018.01 1017.53 1017.09 1016.53 1016.00 1015.64 1015.24 1014.73 1014.13 1013.65 1013.19 1012.61 1011.89 1011.23 1010.73 1010.14 1009.59 1008.94 1008.36
1017.69 1017.29 1017.36 1017.40 1017.33 1017.38 1017.86 1018.19 1018.88 1019.30 1019.66 1020.07 1020.18 1020.21 1020.38 1020.50 1020.57 1020.51 1020.31 1020.07 1019.87 1019.58 1019.24 1018.76 1018.23 1017.63 1017.00 1016.51 1016.01 1015.65 1015.29 1014.98 1014.62 1014.09 1013.48 1012.93 1012.39 1011.76 1011.17 1010.57 1009.87 1009.24 1008.65 1008.07
1016.35 1016.26 1016.43 1016.65 1017.00 1017.39 1018.02 1018.48 1018.75 1019.19 1019.77 1019.99 1020.08 1020.23 1020.43 1020.47 1020.49 1020.41 1020.28 1019.87 1019.45 1018.98 1018.59 1017.98 1017.55 1017.10 1016.63 1016.09 1015.64 1015.35 1014.99 1014.59 1014.14 1013.68 1013.17 1012.63 1012.02 1011.50 1010.89 1010.14 1009.46 1008.87 1008.19 1007.62
1015.42 1015.75 1015.97 1016.34 1017.08 1017.84 1018.38 1018.80 1019.06 1019.48 1019.76 1020.10 1020.42 1020.66 1020.89 1020.99 1020.58 1020.25 1019.99 1019.78 1019.58 1018.74 1017.94 1017.50 1016.97 1016.53 1016.05 1015.64 1015.38 1015.00 1014.68 1014.17 1013.56 1013.03 1012.59 1012.08 1011.52 1011.06 1010.47 1009.82 1009.20 1008.60 1007.98 1007.24
1016.71 1016.59 1016.98 1017.62 1018.12 1018.42 1018.95 1019.35 1019.61 1019.81 1020.03 1020.33 1020.80 1020.93 1020.95 1020.86 1020.13 1019.77 1019.56 1019.37 1019.01 1018.40 1017.71 1017.27 1016.75 1016.16 1015.80 1015.21 1014.79 1014.54 1014.14 1013.62 1013.08 1012.47 1011.86 1011.24 1010.61 1010.10 1009.63 1009.12 1008.71 1008.14 1007.47 1006.78
1018.30 1018.45 1018.57 1019.18 1019.44 1019.52 1019.62 1019.73 1019.84 1020.12 1020.36 1020.53 1021.01 1021.09 1020.93 1020.43 1020.03 1019.57 1019.18 1018.67 1018.28 1017.84 1017.46 1016.98 1016.72 1016.09 1015.52 1014.93 1014.46 1014.02 1013.53 1013.00 1012.45 1011.91 1011.31 1010.70 1010.02 1009.31 1008.56 1008.07 1007.75 1007.39 1006.76 1006.22
1019.71 1019.43 1019.46 1019.65 1019.80 1019.94 1020.11 1020.10 1020.22 1020.51 1020.74 1020.96 1020.95 1020.88 1020.88 1020.45 1019.74 1019.28 1018.85 1018.49 1017.76 1017.59 1017.26 1016.81 1016.38 1015.83 1015.25 1014.63 1014.07 1013.49 1012.95 1012.44 1011.89 1011.34 1010.72 1010.13 1009.51 1008.86 1008.24 1007.61 1006.87 1006.14 1005.60 1005.20
1019.24 1018.99 1019.35 1019.59 1019.76 1019.88 1019.88 1019.85 1019.98 1020.19 1020.51 1020.59 1020.78 1020.59 1020.32 1019.78 1019.42 1019.04 1018.53 1018.07 1017.75 1017.29 1016.83 1016.32 1015.88 1015.39 1014.83 1014.26 1013.59 1012.96 1012.35 1011.75 1011.19 1010.66 1010.11 1009.57 1009.02 1008.40 1007.65 1006.88 1006.22 1005.61 1004.84 1004.07
1019.24 1019.10 1019.25 1019.30 1019.25 1019.50 1019.55 1019.44 1019.53 1019.51 1019.63 1019.62 1019.70 1019.85 1019.75 1019.74 1019.23 1018.81 1018.32 1017.77 1017.30 1016.86 1016.38 1015.83 1015.25 1014.80 1014.33 1013.73 1013.11 1012.46 1011.79 1011.12 1010.45 1009.84 1009.23 1008.64 1008.03 1007.41 1006.79 1006.09 1005.32 1004.61 1003.91 1003.26
1019.05 1018.89 1018.85 1018.94 1018.96 1018.92 1018.81 1018.78 1018.91 1018.85 1018.83 1019.06 1019.37 1019.40 1019.17 1019.05 1019.14 1018.43 1018.13 1017.56 1016.90 1016.32 1015.78 1015.23 1014.69 1014.22 1013.74 1013.14 1012.51 1011.84 1011.20 1010.51 1009.83 1009.21 1008.54 1007.84 1007.13 1006.46 1005.80 1005.11 1004.37 1003.74 1003.03 1002.28
1018.68 1018.54 1018.39 1018.25 1018.08 1018.02 1018.05 1018.04 1018.34 1018.21 1018.32 1018.86 1019.08 1019.21 1019.10 1018.78 1018.57 1018.28 1017.92 1017.41 1016.78 1016.02 1015.41 1014.85 1014.30 1013.75 1013.18 1012.54 1011.92 1011.27 1010.55 1009.82 1009.23 1008.65 1007.97 1007.21 1006.42 1005.67 1004.90 1004.14 1003.42 1002.69 1002.00 1001.32
1018.40 1018.09 1017.87 1017.70 1017.51 1017.37 1017.33 1017.52 1018.10 1018.29 1018.48 1018.79 1019.23 1019.05 1018.98 1018.68 1018.43 1018.17 1017.75 1017.32 1016.73 1016.01 1015.32 1014.61 1013.99 1013.36 1012.66 1012.04 1011.36 1010.62 1009.87 1009.15 1008.71 1008.09 1007.38 1006.61 1005.91 1005.29 1004.55 1003.72 1002.90 1002.13 1001.38 1000.66
Wind_Speed
6 9 7 11 15 18 8 16 8 23 19 19 15 5 4 5 6 5 5 9 12 11 6 5 6 6 10 13 12 14 15 16 15 15 15 14 12 13 11 10 12 21 22 22
5 7 8 12 17 16 14 10 12 17 9 9 8 6 6 3 8 9 9 12 14 12 9 7 6 8 10 11 13 13 14 14 13 14 14 14 13 12 14 14 13 12 19 23
6 3 9 5 6 6 2 2 3 6 4 6 7 10 4 5 6 8 9 14 12 9 8 7 5 4 6 9 10 11 12 15 16 16 15 14 13 12 12 12 10 12 10 12
5 3 3 8 8 5 4 4 5 7 8 6 9 6 6 7 7 8 9 13 11 7 6 6 4 4 5 6 7 10 11 13 14 15 15 14 14 11 10 10 9 12 12 11
3 3 8 7 2 2 1 8 8 5 6 5 6 1 7 8 7 9 12 9 7 5 4 6 6 7 5 5 3 8 12 13 15 14 15 14 14 16 16 15 13 11 12 13
2 3 6 8 4 6 1 4 8 5 5 4 5 4 6 5 5 8 11 9 3 5 4 6 6 7 6 7 7 10 11 12 12 13 13 13 13 13 12 13 13 10 12 13
9 5 8 9 7 4 2 10 4 2 5 4 3 6 8 7 8 6 6 5 4 4 4 5 6 7 7 8 9 9 9 10 10 12 13 11 11 10 10 10 10 12 12 11
2 1 10 7 0 1 6 2 3 4 5 5 5 6 6 8 8 7 5 6 6 5 5 5 6 6 6 8 10 10 10 11 10 10 10 11 12 11 11 10 9 10 11 10
9 8 6 3 5 5 5 5 6 5 7 6 2 3 5 4 6 6 5 6 5 5 5 5 6 6 8 7 11 10 11 10 11 10 8 10 13 13 11 9 8 8 8 8
4 4 6 6 7 5 7 7 7 5 6 4 3 5 5 4 5 4 5 5 5 6 6 5 6 5 5 10 10 10 10 11 10 10 10 9 8 7 8 9 8 8 8 8
8 14 15 14 6 5 7 10 6 4 5 3 4 6 4 3 5 5 5 6 6 8 6 7 7 6 7 10 11 11 10 12 11 8 9 9 8 7 7 6 7 8 7 6
10 13 8 10 10 11 9 14 9 7 4 5 4 3 4 4 4 4 5 6 8 7 9 7 8 9 10 10 10 11 10 11 9 8 9 9 9 9 8 9 12 11 10 5
15 11 12 15 12 10 11 8 6 6 7 5 3 4 4 2 3 4 5 7 7 7 8 9 10 11 10 11 10 11 9 11 10 9 12 12 11 10 13 10 8 12 10 13
14 14 19 17 13 7 7 8 7 4 6 6 5 3 3 2 3 4 5 6 5 7 7 7 9 10 10 9 11 10 13 11 7 8 10 11 10 9 9 10 13 12 7 11
22 19 18 21 12 8 7 6 7 6 5 4 3 4 2 3 4 4 4 5 6 6 6 7 8 11 9 9 10 9 11 8 8 7 8 9 9 9 8 9 9 12 12 8
14 11 11 9 10 9 7 7 8 6 5 3 2 3 2 2 4 5 5 5 6 8 9 7 8 10 7 8 9 7 10 11 9 8 7 8 8 9 9 9 10 9 9 9
10 11 7 4 4 7 6 6 6 7 4 3 3 2 3 4 5 5 6 6 6 8 9 9 9 8 8 7 8 8 7 8 8 7 9 9 8 8 8 9 9 9 12 10
17 14 7 7 7 8 7 6 6 6 4 4 1 1 2 3 5 6 6 7 7 9 9 9 8 8 9 9 7 7 7 7 7 9 10 8 9 9 9 9 9 10 11 10
11 10 5 10 9 7 6 6 5 5 4 2 3 3 3 4 5 6 7 7 9 12 11 10 13 11 10 8 6 5 7 9 10 9 9 10 8 8 8 8 10 10 11 10
9 10 9 8 5 5 5 3 3 3 2 3 1 2 4 5 5 6 7 7 12 8 10 11 11 9 10 10 6 6 9 10 10 10 9 9 10 10 9 10 10 10 10 10
6 6 8 6 4 4 4 3 2 1 2 1 2 4 5 5 5 7 9 9 7 8 8 8 8 8 8 9 7 8 9 10 9 10 10 9 11 11 11 11 10 10 10 9
1 1 3 3 3 3 2 2 3 3 3 3 4 4 4 5 6 7 6 8 7 6 6 7 7 11 11 14 9 10 10 10 9 9 9 10 10 10 11 11 12 11 11 10
4 1 3 5 4 4 4 6 6 4 5 5 6 7 5 5 4 5 8 4 4 8 7 8 12 14 14 10 9 10 11 11 10 10 10 10 10 11 11 12 11 12 12 12
6 4 4 3 4 3 6 6 5 6 6 7 5 6 4 3 4 4 5 8 8 10 9 10 11 14 15 9 9 10 10 11 11 10 11 13 11 11 11 11 11 11 12 13
7 7 3 4 6 7 9 7 6 5 4 4 4 4 4 3 3 5 5 7 10 9 9 11 13 13 9 9 9 10 10 10 10 11 12 11 12 12 12 12 12 12 13 13
6 6 6 8 9 6 6 4 4 4 3 3 3 3 3 3 4 5 5 7 8 9 7 8 8 10 9 10 10 11 11 11 9 11 12 12 12 12 13 13 13 14 14 14
7 6 7 6 4 7 5 4 3 3 2 2 3 3 3 3 4 4 5 5 6 6 7 7 8 10 10 11 11 11 12 9 11 11 11 12 10 11 13 13 13 13 13 13
Wind_Direction
235 246 241 259 276 290 207 243 214 273 276 287 301 296 313 293 284 313 316 315 307 301 296 305 340 343 343 343 347 346 343 343 342 342 341 342 354 343 345 316 287 254 240 228
278 247 252 277 286 280 274 276 276 268 300 13 322 279 262 295 347 332 316 310 307 310 321 314 330 336 344 353 341 344 335 334 335 343 347 348 347 358 340 343 342 326 251 231
265 314 321 328 238 277 274 339 300 0 303 328 285 295 299 313 294 298 297 298 305 324 322 323 286 321 339 335 337 350 336 330 336 349 343 342 355 1 341 332 335 326 327 316
256 7 11 233 298 254 240 235 272 250 277 279 256 266 249 256 264 281 286 288 301 307 314 330 326 314 316 344 334 342 342 334 335 344 338 343 345 2 352 334 2 335 330 330
143 227 272 283 158 287 307 298 247 249 276 292 289 105 283 227 249 260 274 290 298 286 302 347 345 310 297 330 329 349 348 342 339 341 335 345 347 344 350 348 355 351 350 329
127 182 246 233 260 255 337 265 253 226 271 288 340 325 268 253 252 278 285 300 302 312 331 1 336 335 334 334 353 355 348 338 334 334 337 342 341 337 353 345 349 349 356 351
223 223 262 243 229 270 102 241 293 217 259 284 261 212 264 280 283 271 282 336 325 345 3 352 346 334 340 338 353 349 336 326 327 337 338 343 337 333 347 346 353 352 360 1
120 113 267 215 231 335 235 243 210 205 240 259 258 320 331 303 298 308 350 342 345 4 356 6 352 334 332 347 344 338 340 332 329 333 337 332 347 345 344 343 6 350 344 357
178 212 223 259 222 225 193 185 221 215 227 206 254 277 305 314 331 329 360 329 342 6 350 353 344 348 352 350 341 335 340 338 335 332 337 332 340 343 343 349 4 343 351 350
11 259 238 284 299 224 208 220 219 249 227 199 240 284 283 296 319 8 336 330 337 350 345 349 336 349 2 344 337 336 340 341 334 332 336 336 338 338 336 344 349 344 346 343
272 278 281 262 247 285 263 263 220 188 195 220 250 267 270 352 22 348 338 350 355 351 354 348 346 351 351 340 336 332 336 341 335 334 339 333 338 331 326 326 316 333 324 340
252 258 245 268 270 267 282 285 231 180 219 254 261 124 92 62 34 12 5 358 357 13 358 358 346 339 340 338 334 326 339 336 325 332 342 337 335 338 319 296 299 297 309 319
245 262 261 268 258 261 285 218 178 197 222 151 94 98 78 79 33 3 355 351 353 358 340 336 335 332 333 331 326 321 333 326 325 337 337 337 337 333 333 335 307 306 320 324
271 273 288 270 262 248 221 196 195 139 132 129 127 91 87 52 11 3 353 328 342 332 326 325 324 320 318 315 315 311 331 307 318 330 329 326 324 324 324 325 332 330 332 328
261 265 252 262 259 239 200 183 139 146 147 136 139 142 105 12 336 316 314 303 313 298 293 304 307 310 305 303 303 298 326 325 320 319 318 318 311 313 316 320 320 321 326 327
256 256 273 282 243 205 174 157 154 154 165 173 189 186 197 262 283 296 296 296 314 309 301 290 278 286 295 302 305 304 321 310 305 313 313 313 311 311 313 314 315 314 318 324
256 267 276 247 198 181 189 155 165 167 171 200 212 192 281 295 291 287 295 297 292 291 296 290 285 285 282 287 314 318 310 304 294 299 313 312 306 306 308 307 308 308 312 314
243 251 233 228 187 157 142 153 143 146 166 177 152 139 301 308 287 296 295 302 305 306 298 292 288 293 294 298 318 320 308 302 301 308 311 299 296 295 294 294 298 300 302 304
232 241 168 112 116 124 135 141 144 161 152 122 46 2 332 301 291 301 312 314 315 314 307 303 302 302 303 303 302 303 304 303 302 300 292 289 287 286 289 289 295 296 298 300
37 78 96 109 117 123 133 118 131 94 44 86 138 295 284 279 277 296 306 302 309 298 292 303 304 312 307 299 297 309 304 298 294 294 294 293 294 293 287 284 284 292 291 288
81 51 58 67 88 84 87 104 67 319 262 309 274 264 263 277 292 314 305 305 300 287 305 314 312 309 311 302 308 306 300 294 291 293 292 292 294 293 296 292 289 286 286 284
325 99 43 13 12 340 339 328 344 323 307 294 284 280 281 282 277 278 263 279 298 307 310 312 310 306 303 306 305 301 296 292 288 290 290 290 289 290 290 288 290 291 289 287
301 161 218 216 223 243 280 294 281 255 261 251 254 257 252 263 267 291 304 278 294 299 304 306 304 296 298 302 296 295 295 292 289 288 287 286 284 283 284 286 284 285 288 291
314 311 261 222 213 246 266 272 245 250 237 251 241 243 235 291 291 262 273 287 280 308 296 293 293 297 298 295 291 289 292 291 289 289 290 289 287 286 285 285 286 288 287 290
288 285 243 216 247 255 248 246 252 242 238 258 269 262 239 238 217 290 278 288 294 297 295 295 295 294 294 292 289 289 288 289 289 291 293 291 292 290 289 288 288 291 291 291
281 282 276 256 247 238 231 216 224 228 205 225 271 267 278 278 279 283 285 286 293 290 294 300 303 301 296 291 291 290 289 287 290 293 291 290 290 291 295 296 295 295 294 292
279 267 285 276 255 248 232 215 224 235 198 182 252 272 263 280 286 294 290 295 291 296 298 293 302 301 297 296 294 291 292 282 290 291 290 288 290 298 296 294 294 294 291 288